Total_Precipitation_Accumulation
0.31 0.26 0.34 0.38 0.35 0.39 0.54 0.53 0.43 0.25 0.22 0.20 0.18 0.18 0.19 0.20 0.19 0.18 0.16 0.17 0.20 0.25 0.27 0.32 0.34 0.38 0.40 0.45 0.54 0.60 0.58 0.66 0.71 0.80 0.90 0.88 0.83 0.85 0.94 1.07 1.15 1.19 1.18 1.10
0.32 0.19 0.25 0.31 0.25 0.26 0.30 0.26 0.23 0.17 0.19 0.19 0.18 0.17 0.17 0.17 0.18 0.19 0.17 0.16 0.19 0.22 0.26 0.33 0.38 0.41 0.45 0.47 0.51 0.59 0.59 0.64 0.66 0.75 0.87 0.92 0.84 0.85 0.95 1.05 1.09 1.12 1.14 1.13
0.59 0.26 0.46 0.52 0.31 0.26 0.28 0.26 0.23 0.25 0.26 0.21 0.19 0.18 0.20 0.19 0.20 0.19 0.18 0.17 0.18 0.23 0.27 0.32 0.37 0.38 0.46 0.50 0.53 0.58 0.59 0.61 0.67 0.75 0.80 0.88 0.89 0.89 0.98 1.07 1.09 1.08 1.07 1.07
0.95 0.68 0.94 0.48 0.23 0.22 0.28 0.29 0.25 0.23 0.19 0.19 0.21 0.21 0.23 0.21 0.22 0.21 0.22 0.23 0.21 0.25 0.29 0.30 0.34 0.33 0.38 0.44 0.56 0.63 0.63 0.61 0.66 0.74 0.77 0.85 0.90 0.92 1.02 1.10 1.07 1.06 1.06 1.03
1.29 0.93 0.49 0.27 0.25 0.33 0.41 0.41 0.29 0.21 0.15 0.14 0.16 0.20 0.25 0.21 0.21 0.23 0.24 0.27 0.26 0.26 0.28 0.28 0.31 0.32 0.32 0.37 0.49 0.61 0.66 0.61 0.62 0.70 0.76 0.84 0.89 0.95 1.03 1.11 1.07 1.04 1.01 1.03
1.41 1.02 0.50 0.33 0.23 0.26 0.38 0.53 0.30 0.21 0.19 0.17 0.21 0.32 0.30 0.25 0.22 0.22 0.22 0.24 0.26 0.26 0.25 0.27 0.30 0.32 0.31 0.35 0.43 0.54 0.63 0.55 0.58 0.64 0.69 0.77 0.84 0.93 1.00 1.01 1.00 1.01 0.97 0.97
1.17 0.91 0.38 0.26 0.23 0.28 0.59 0.65 0.33 0.26 0.25 0.25 0.31 0.34 0.29 0.27 0.28 0.27 0.26 0.25 0.24 0.26 0.27 0.30 0.32 0.32 0.32 0.36 0.40 0.49 0.59 0.54 0.57 0.61 0.65 0.73 0.82 0.86 0.93 0.97 0.95 0.99 0.97 0.94
0.89 0.95 0.50 0.29 0.35 0.59 0.68 0.37 0.28 0.27 0.26 0.26 0.26 0.23 0.22 0.24 0.29 0.32 0.29 0.26 0.26 0.26 0.27 0.28 0.30 0.33 0.34 0.37 0.39 0.46 0.55 0.56 0.60 0.66 0.68 0.71 0.77 0.78 0.81 0.92 0.95 0.97 0.99 1.01
0.77 0.63 0.42 0.36 0.45 0.48 0.39 0.33 0.26 0.26 0.26 0.25 0.24 0.23 0.24 0.26 0.30 0.33 0.31 0.29 0.29 0.29 0.27 0.26 0.28 0.33 0.38 0.41 0.41 0.47 0.52 0.54 0.61 0.69 0.72 0.73 0.72 0.75 0.80 0.87 0.94 0.97 0.97 0.98
0.52 0.38 0.29 0.28 0.28 0.28 0.25 0.26 0.25 0.25 0.25 0.25 0.25 0.22 0.24 0.26 0.30 0.32 0.32 0.32 0.32 0.33 0.30 0.28 0.27 0.32 0.39 0.45 0.44 0.48 0.51 0.52 0.58 0.64 0.70 0.74 0.70 0.68 0.72 0.81 0.93 0.95 0.94 0.90
0.39 0.25 0.23 0.22 0.22 0.21 0.20 0.18 0.18 0.19 0.19 0.21 0.22 0.22 0.24 0.26 0.30 0.34 0.35 0.35 0.34 0.35 0.34 0.31 0.30 0.34 0.40 0.44 0.44 0.48 0.46 0.46 0.51 0.54 0.66 0.76 0.76 0.71 0.70 0.72 0.88 0.98 0.93 0.89
0.34 0.25 0.29 0.25 0.21 0.20 0.20 0.19 0.19 0.19 0.17 0.16 0.19 0.21 0.22 0.24 0.28 0.36 0.40 0.38 0.37 0.36 0.35 0.36 0.36 0.39 0.43 0.44 0.44 0.45 0.45 0.44 0.46 0.51 0.59 0.70 0.74 0.77 0.84 0.83 0.85 0.86 0.85 0.90
0.25 0.19 0.20 0.20 0.19 0.18 0.19 0.18 0.17 0.18 0.19 0.17 0.17 0.18 0.21 0.23 0.26 0.33 0.37 0.38 0.39 0.40 0.40 0.41 0.41 0.44 0.46 0.46 0.46 0.46 0.46 0.46 0.48 0.51 0.57 0.65 0.67 0.68 0.80 0.91 0.94 0.88 0.83 0.86
0.15 0.15 0.15 0.14 0.16 0.17 0.18 0.17 0.15 0.14 0.16 0.16 0.16 0.16 0.16 0.19 0.22 0.30 0.39 0.41 0.40 0.38 0.39 0.42 0.43 0.48 0.53 0.54 0.52 0.49 0.48 0.53 0.55 0.54 0.58 0.64 0.65 0.63 0.67 0.75 0.84 0.88 0.89 0.88
0.11 0.14 0.15 0.13 0.15 0.17 0.18 0.17 0.14 0.14 0.15 0.15 0.15 0.15 0.16 0.19 0.24 0.33 0.40 0.40 0.39 0.38 0.40 0.43 0.45 0.51 0.56 0.61 0.59 0.53 0.53 0.56 0.59 0.58 0.61 0.65 0.65 0.64 0.66 0.68 0.72 0.78 0.86 0.92
0.14 0.14 0.13 0.14 0.15 0.17 0.20 0.20 0.18 0.17 0.17 0.17 0.18 0.18 0.18 0.20 0.23 0.29 0.36 0.41 0.42 0.44 0.46 0.46 0.52 0.60 0.63 0.67 0.67 0.62 0.63 0.70 0.69 0.64 0.64 0.68 0.70 0.72 0.71 0.71 0.74 0.76 0.79 0.85
0.18 0.16 0.15 0.15 0.15 0.18 0.22 0.24 0.22 0.19 0.19 0.19 0.20 0.19 0.18 0.19 0.20 0.24 0.31 0.38 0.43 0.47 0.49 0.52 0.58 0.62 0.67 0.72 0.73 0.70 0.70 0.74 0.79 0.72 0.68 0.74 0.79 0.79 0.76 0.78 0.80 0.78 0.76 0.81
0.18 0.19 0.18 0.17 0.17 0.18 0.20 0.23 0.22 0.19 0.19 0.20 0.19 0.18 0.18 0.21 0.23 0.27 0.32 0.36 0.38 0.39 0.45 0.53 0.61 0.65 0.67 0.75 0.79 0.76 0.74 0.76 0.79 0.77 0.75 0.79 0.84 0.83 0.82 0.83 0.84 0.83 0.80 0.83
0.14 0.15 0.15 0.15 0.14 0.15 0.17 0.19 0.20 0.17 0.18 0.19 0.19 0.21 0.23 0.24 0.26 0.28 0.31 0.32 0.34 0.40 0.46 0.54 0.64 0.63 0.65 0.75 0.83 0.79 0.78 0.81 0.84 0.85 0.80 0.86 0.90 0.88 0.86 0.85 0.85 0.83 0.84 0.84
0.13 0.13 0.14 0.14 0.12 0.13 0.15 0.16 0.17 0.16 0.17 0.19 0.21 0.23 0.25 0.26 0.27 0.29 0.30 0.32 0.39 0.50 0.53 0.59 0.62 0.64 0.68 0.71 0.78 0.80 0.84 0.86 0.89 0.90 0.87 0.87 0.90 0.93 0.91 0.89 0.87 0.87 0.87 0.87
0.15 0.16 0.16 0.15 0.14 0.13 0.15 0.16 0.18 0.18 0.17 0.21 0.24 0.27 0.27 0.27 0.29 0.31 0.33 0.34 0.37 0.46 0.53 0.61 0.65 0.71 0.73 0.76 0.81 0.84 0.90 0.91 0.93 0.96 0.96 0.95 0.94 0.96 0.94 0.93 0.91 0.89 0.88 0.88
0.21 0.21 0.21 0.20 0.18 0.17 0.17 0.17 0.19 0.21 0.22 0.24 0.27 0.28 0.28 0.28 0.29 0.32 0.35 0.39 0.42 0.52 0.58 0.63 0.71 0.82 0.88 0.88 0.83 0.86 0.91 0.92 0.94 0.97 0.99 0.97 0.97 1.00 0.97 0.96 0.97 0.92 0.87 0.87
0.26 0.27 0.26 0.25 0.22 0.20 0.19 0.20 0.21 0.24 0.28 0.29 0.30 0.31 0.32 0.32 0.34 0.37 0.40 0.41 0.45 0.58 0.65 0.72 0.84 0.94 0.98 0.90 0.85 0.88 0.92 0.94 0.95 0.98 1.01 0.99 0.98 1.00 1.00 0.98 0.97 0.94 0.91 0.88
0.30 0.30 0.30 0.30 0.27 0.24 0.24 0.25 0.26 0.29 0.33 0.34 0.35 0.37 0.39 0.38 0.38 0.39 0.44 0.49 0.56 0.65 0.71 0.81 0.92 0.97 1.00 0.93 0.89 0.91 0.95 0.95 0.95 0.98 1.01 1.01 1.03 1.03 1.00 1.00 0.99 0.93 0.88 0.85
0.33 0.33 0.31 0.31 0.32 0.32 0.31 0.31 0.31 0.33 0.36 0.37 0.37 0.38 0.42 0.44 0.46 0.45 0.47 0.51 0.60 0.67 0.72 0.80 0.88 0.94 0.96 0.95 0.92 0.94 0.97 0.98 1.00 1.04 1.05 1.05 1.04 1.03 1.01 0.97 0.94 0.92 0.88 0.83
0.36 0.36 0.36 0.36 0.38 0.38 0.37 0.36 0.38 0.39 0.40 0.40 0.40 0.41 0.44 0.47 0.50 0.50 0.52 0.55 0.61 0.68 0.71 0.76 0.82 0.89 0.93 0.94 0.94 0.95 0.97 1.02 1.05 1.02 1.00 1.00 0.99 0.99 0.98 0.94 0.89 0.86 0.85 0.82
0.41 0.40 0.40 0.41 0.41 0.43 0.43 0.43 0.45 0.47 0.47 0.48 0.49 0.47 0.47 0.50 0.52 0.54 0.56 0.60 0.64 0.69 0.73 0.77 0.82 0.88 0.93 0.96 0.99 1.00 1.00 0.99 1.00 1.00 1.00 0.98 0.95 0.95 0.94 0.91 0.88 0.85 0.83 0.80